Date,TemperatureHighF,TemperatureAvgF,TemperatureLowF,DewpointHighF,DewpointAvgF,DewpointLowF,HumidityHigh,HumidityAvg,HumidityLow,PressureMaxIn,PressureMinIn,WindSpeedMaxMPH,WindSpeedAvgMPH,GustSpeedMaxMPH,PrecipitationSumIn
2015-1-1,25.4,14.9,10.9,20.0,10.2,5.0,92,81,74,30.11,29.72,3,0,0,0.00
2015-1-2,17.5,11.2,3.1,11.0,6.1,0.0,88,80,70,30.31,30.10,5,0,0,0.00
2015-1-3,29.3,24.6,17.3,28.0,20.6,9.0,93,85,68,30.25,29.92,5,0,0,0.00
2015-1-4,26.2,9.3,-2.8,24.0,6.0,-8.0,91,86,78,30.32,29.94,3,0,0,0.00
2015-1-5,4.1,-3.1,-10.5,-3.0,-9.0,-16.0,82,76,70,30.45,30.32,2,0,0,0.00
2015-1-6,11.6,4.9,-0.2,6.0,-0.0,-6.0,87,80,72,30.32,30.08,1,0,0,0.00
2015-1-7,2.7,-0.4,-2.9,-1.0,-4.9,-8.0,85,81,76,30.66,30.26,1,0,0,0.00
2015-1-8,12.2,4.5,-0.7,10.0,-1.4,-8.0,93,77,62,30.36,29.66,3,0,0,0.00
2015-1-9,10.8,3.5,-1.2,8.0,-1.6,-7.0,89,79,70,30.17,29.75,2,0,0,0.00
2015-1-10,12.7,-0.7,-3.5,0.0,-6.4,-9.0,80,77,58,30.19,30.14,2,0,0,0.00
2015-1-14,23.0,20.7,18.2,16.0,15.4,14.0,85,80,74,30.21,30.07,1,0,0,0.00
2015-1-15,32.9,25.0,18.2,26.0,19.5,10.0,86,80,67,30.05,29.73,3,0,0,0.00
2015-1-16,18.5,13.5,8.7,12.0,8.4,5.0,88,80,67,30.29,30.01,2,0,0,0.00
2015-1-17,33.3,27.4,15.2,31.0,24.6,11.0,93,89,82,30.10,29.42,3,0,0,0.00
2015-1-18,32.7,26.8,21.0,29.0,23.0,18.0,89,85,81,30.05,29.45,3,0,0,0.00
2015-1-19,21.5,17.9,9.5,18.0,14.8,7.0,90,87,81,30.14,30.05,1,0,0,0.00
2015-1-20,21.3,12.1,4.1,17.0,9.0,1.0,92,87,79,30.15,30.06,1,0,0,0.00
2015-1-21,26.5,20.2,4.0,23.0,17.1,1.0,91,87,77,30.28,30.15,1,0,0,0.00
2015-1-22,32.0,26.5,21.9,23.0,19.1,16.0,89,74,56,30.40,30.04,6,1,0,0.00
2015-1-23,37.1,32.2,26.1,31.0,27.2,20.0,92,82,73,30.04,29.69,8,2,0,0.06
2015-1-24,35.4,27.9,19.4,32.0,24.2,13.0,91,86,76,29.87,29.60,7,1,0,0.04
2015-1-25,19.2,14.7,3.7,14.0,9.2,1.0,88,78,68,30.18,29.88,4,0,0,0.00
2015-1-26,24.5,17.0,5.9,19.0,12.2,3.0,98,81,70,30.11,29.91,7,0,0,0.00
2015-1-27,25.6,19.3,11.7,21.0,15.9,9.0,91,86,76,30.31,30.11,2,0,0,0.00
2015-1-28,30.1,25.9,20.3,26.0,21.4,18.0,89,83,75,30.29,29.93,8,1,0,0.00
2015-1-29,30.2,23.6,14.8,27.0,19.8,8.0,90,85,71,30.41,29.81,7,1,0,0.00
2015-1-30,17.2,13.9,10.4,12.0,6.4,4.0,87,72,59,30.57,30.29,9,0,0,0.00
2015-1-31,23.6,16.5,10.9,19.0,12.5,6.0,89,84,76,30.43,30.17,5,0,0,0.00
2015-2-1,13.0,10.7,8.7,8.0,5.5,3.0,85,79,72,30.45,30.22,5,1,0,0.00
2015-2-2,16.6,10.1,4.6,6.0,2.9,-3.0,87,74,53,30.22,30.04,2,0,0,0.00
2015-2-3,21.0,12.6,5.9,12.0,4.1,-2.0,87,69,55,30.11,30.01,2,0,0,0.00
2015-2-4,12.9,7.1,-2.9,8.0,2.3,-7.0,88,81,64,30.35,30.07,1,0,0,0.00
2015-2-5,17.7,7.3,-7.5,5.0,-4.1,-11.0,85,63,38,30.41,29.95,4,0,0,0.00
2015-2-6,21.2,16.5,13.9,14.0,11.4,5.0,89,81,63,30.16,30.00,4,0,0,0.00
2015-2-7,20.7,18.3,15.7,18.0,15.8,13.0,91,89,86,30.09,29.83,2,0,0,0.00
2015-2-8,18.6,16.4,14.5,16.0,14.0,12.0,91,90,88,30.26,29.85,3,0,0,0.00
2015-2-9,22.4,12.4,0.7,19.0,9.5,-3.0,92,88,81,30.37,30.26,4,0,0,0.00
2015-2-10,27.0,22.4,18.2,24.0,19.6,16.0,92,88,82,30.37,30.02,2,0,0,0.00
2015-2-11,27.1,19.2,7.9,23.0,15.4,4.0,95,85,72,30.23,29.87,10,1,0,0.00
2015-2-12,9.0,3.2,-9.6,6.0,-0.9,-14.0,88,83,76,30.54,30.23,9,1,0,0.00
2015-2-13,16.6,6.9,-9.9,13.0,2.6,-14.0,88,82,74,30.42,29.88,1,0,0,0.00
2015-2-14,9.2,2.0,-1.4,6.0,-1.4,-5.0,88,85,79,30.54,29.90,12,1,0,0.00
2015-3-6,34.3,22.6,7.6,18.0,10.7,0.0,78,62,41,30.19,29.97,5,1,0,0.00
2015-3-7,32.7,24.3,16.8,25.0,18.0,11.0,88,77,66,30.12,29.87,3,0,12,0.00
2015-3-8,35.8,24.9,11.3,28.0,19.8,9.0,100,81,68,30.12,29.98,3,0,6,0.04
2015-3-9,47.5,36.6,21.7,32.0,26.4,19.0,88,68,42,30.05,29.86,4,1,12,0.27
2015-3-10,61.0,47.0,39.2,34.0,31.7,26.0,75,58,33,29.97,29.66,5,2,11,0.00
2015-3-11,43.4,35.0,28.3,31.0,25.7,22.0,86,70,51,30.46,29.98,8,1,16,0.00
2015-3-12,43.1,36.0,29.3,28.0,23.1,15.0,85,62,33,30.56,30.20,8,1,19,0.00
2015-3-13,52.8,42.0,36.1,40.0,34.1,28.0,89,75,61,30.26,29.92,8,1,13,0.04
2015-3-14,42.2,35.9,33.0,37.0,30.8,29.0,87,82,76,30.19,29.93,5,1,12,0.01
2015-3-15,47.5,37.9,27.8,36.0,31.0,26.0,92,77,58,30.20,29.79,9,1,12,0.00
2015-3-16,48.6,40.1,31.9,39.0,34.8,26.0,94,82,59,30.11,29.79,8,0,13,0.27
2015-3-17,34.2,30.1,26.4,25.0,14.3,7.0,77,53,35,30.32,30.11,5,1,16,0.00
2015-3-18,29.6,25.0,18.0,17.0,15.3,12.0,86,68,50,30.35,30.24,10,1,12,0.00
2015-3-19,39.3,31.5,19.4,26.0,19.4,12.0,83,62,44,30.34,30.07,4,1,11,0.00
2015-3-20,48.3,38.1,33.2,33.0,28.5,23.0,91,69,52,30.06,29.90,4,1,8,0.00
2015-3-21,33.0,22.8,15.5,31.0,15.1,9.0,93,73,55,30.35,29.93,9,1,17,0.01
2015-3-22,25.6,10.4,17.1,13.0,5.1,9.0,73,29,55,30.44,30.34,7,1,14,0.00
2015-3-23,28.3,9.3,24.7,18.0,5.3,13.0,76,21,56,30.46,30.36,4,0,6,0.00
2015-3-24,43.9,14.1,35.6,19.0,5.6,12.0,49,12,29,30.35,30.09,5,0,9,0.00
2015-3-25,-200.0,0.0,200.0,-99.9,0.0,200.0,0,0,100,30.10,29.65,0,0,0,0.00
2015-3-26,-200.0,0.0,200.0,-99.9,0.0,200.0,0,0,100,30.13,29.74,0,0,0,0.00
2015-3-27,17.5,5.3,12.4,8.0,1.9,3.0,75,21,53,30.34,30.12,4,0,13,0.00
2015-3-28,37.8,16.7,27.0,20.0,7.2,1.0,73,27,26,30.36,30.11,5,0,9,0.11
2015-3-29,36.4,31.9,29.0,33.0,24.5,16.0,93,75,57,30.10,29.48,9,2,21,0.05
2015-3-30,36.7,32.9,25.9,32.0,28.3,23.0,93,83,74,29.98,29.72,6,1,12,0.23
2015-3-31,36.5,28.8,20.0,31.0,25.6,18.0,94,88,75,30.04,29.89,3,0,5,0.01
2015-4-1,45.7,35.9,29.4,36.0,31.1,28.0,94,84,58,30.09,29.62,14,1,17,0.08
2015-4-2,59.4,49.7,41.6,47.0,34.5,22.0,90,60,26,29.68,29.47,6,1,12,0.01
2015-4-3,46.2,28.1,17.1,32.0,20.6,12.0,91,74,45,30.18,29.69,6,1,16,0.01
2015-4-4,34.1,26.6,16.9,18.0,14.2,10.0,82,61,37,30.18,30.14,4,0,15,0.00
2015-4-5,28.7,25.9,21.3,24.0,16.5,13.0,87,68,53,30.23,30.15,3,0,10,0.00
2015-4-6,32.8,28.1,21.1,22.0,18.0,11.0,79,66,56,30.36,30.19,2,0,8,0.00
2015-4-7,34.5,31.0,27.7,25.0,21.7,16.0,81,69,48,30.46,30.34,5,1,9,0.00
2015-4-8,36.9,33.5,31.1,31.0,28.2,24.0,89,81,66,30.33,30.11,4,0,7,0.01
2015-4-9,35.5,33.2,31.6,33.0,30.6,25.0,95,90,69,30.13,29.65,3,0,9,0.32
2015-4-10,39.5,34.0,31.2,35.0,32.0,29.0,96,92,80,30.05,29.49,4,1,10,0.58
2015-4-11,58.3,44.4,31.7,34.0,30.4,27.0,93,62,31,30.16,30.02,4,1,9,0.17
2015-4-12,70.6,57.1,43.7,42.0,37.0,32.0,68,48,32,30.01,29.74,11,3,15,0.00
2015-4-13,58.6,51.5,43.8,44.0,35.6,23.0,92,59,25,30.05,29.62,11,2,15,0.20
2015-4-14,60.9,48.1,34.6,29.0,22.6,14.0,66,40,17,30.31,30.05,5,0,9,0.00
2015-4-15,64.8,48.9,31.8,26.0,20.6,14.0,75,39,16,30.40,30.28,6,1,10,0.00
2015-4-16,67.8,52.2,41.5,40.0,29.7,22.0,64,44,24,30.27,30.00,5,1,9,0.00
2015-4-17,56.3,49.6,41.0,40.0,35.7,30.0,78,60,41,30.14,29.96,5,1,8,0.00
2015-4-18,55.1,41.8,29.5,37.0,33.5,27.0,91,73,42,30.31,29.96,5,1,13,0.00
2015-4-19,55.7,44.2,29.2,32.0,29.5,27.0,92,60,37,30.20,29.55,6,1,13,0.00
2015-4-20,45.0,37.9,34.6,38.0,34.3,31.0,95,87,59,29.54,29.15,5,0,8,0.44
2015-4-21,40.4,35.0,29.2,36.0,31.1,26.0,93,86,75,29.55,29.30,3,0,11,0.06
2015-4-22,29.0,26.4,23.6,26.0,22.6,20.0,90,85,77,29.89,29.55,4,0,12,0.01
2015-4-23,38.9,31.3,25.3,26.0,23.1,21.0,85,73,48,30.08,29.89,8,1,14,0.02
2015-4-24,39.4,31.6,22.7,28.0,23.0,19.0,91,72,46,30.16,30.08,8,1,9,0.00
2015-4-25,41.6,34.0,25.7,29.0,24.6,18.0,90,70,48,30.10,30.04,4,1,12,0.00
2015-4-26,45.2,38.5,28.8,33.0,28.4,22.0,78,67,58,30.19,30.07,11,1,17,0.00
2015-4-27,43.6,39.9,31.4,35.0,32.3,28.0,89,74,62,30.23,30.14,6,1,14,0.00
2015-4-28,56.0,43.6,29.5,38.0,33.1,28.0,95,70,46,30.21,30.05,3,0,6,0.00
2015-4-29,47.0,43.0,38.2,38.0,34.7,33.0,82,72,64,30.07,30.04,17,2,17,0.00
2015-4-30,43.4,38.9,32.2,37.0,34.5,30.0,91,84,77,30.15,30.02,5,1,14,0.00
2015-5-1,67.9,51.5,30.8,43.0,37.8,29.0,95,63,38,30.15,30.00,5,0,10,0.00
2015-5-2,65.7,58.1,47.0,45.0,42.1,39.0,82,57,44,30.00,29.82,5,1,9,0.00
2015-5-3,80.1,62.3,54.9,60.0,51.3,44.0,94,69,39,29.84,29.72,5,1,11,0.36
2015-5-4,57.3,53.0,38.9,55.0,42.2,35.0,95,68,52,30.28,29.84,7,1,17,0.01
2015-5-5,65.1,51.9,39.0,38.0,34.7,30.0,85,55,31,30.36,30.27,4,1,8,0.00
2015-5-6,71.5,52.5,41.1,37.0,32.1,26.0,72,51,20,30.28,30.18,6,1,11,0.00
2015-5-11,46.2,44.1,40.2,45.0,42.8,39.0,96,95,94,29.72,29.66,2,0,3,0.27
2015-5-12,41.6,38.4,36.4,40.0,36.0,34.0,96,91,82,30.33,29.66,5,0,10,0.02
2015-5-13,49.9,42.3,34.4,39.0,34.1,31.0,88,74,59,30.54,30.34,3,0,6,0.00
2015-5-14,63.2,53.1,38.5,42.0,35.8,31.0,85,53,40,30.44,30.13,4,1,10,0.00
2015-5-15,52.6,48.5,44.8,49.0,44.4,37.0,95,86,58,30.13,29.96,3,0,6,0.12
2015-5-16,59.9,51.5,43.8,53.0,47.0,42.0,95,85,70,30.11,30.03,3,1,8,0.00
2015-5-17,69.9,63.0,54.8,64.0,59.2,51.0,93,87,80,30.05,29.70,7,2,17,0.05
2015-5-18,64.9,52.4,37.2,63.0,47.9,35.0,93,85,66,30.07,29.66,5,1,10,0.03
2015-5-19,41.6,35.0,29.6,34.0,30.8,27.0,94,85,57,30.33,30.07,11,1,21,0.07
2015-5-20,56.9,46.5,29.6,36.0,29.7,26.0,91,56,30,30.29,30.01,4,0,10,0.00
2015-5-21,53.7,49.2,37.8,37.0,30.4,21.0,70,49,37,30.09,29.89,9,1,16,0.00
2015-5-22,48.8,41.3,29.7,34.0,27.4,23.0,87,60,39,30.31,30.10,3,0,6,0.00
2015-5-23,80.3,62.5,47.5,49.0,38.2,27.0,71,43,24,30.27,30.12,7,1,9,0.00
2015-5-24,77.7,65.3,52.6,54.0,46.2,42.0,72,52,34,30.15,29.97,3,0,9,0.00
2015-5-25,68.8,58.1,51.3,64.0,55.7,50.0,97,92,75,29.96,29.64,5,0,6,1.27
2015-5-26,62.3,55.4,47.4,60.0,53.3,46.0,96,92,83,29.87,29.72,2,0,6,0.50
2015-5-27,68.5,57.0,46.3,63.0,54.3,45.0,97,91,73,30.05,29.65,3,0,5,0.62
2015-5-28,72.9,53.6,41.9,62.0,49.3,41.0,96,86,68,30.22,30.03,2,0,7,0.00
2015-5-29,76.9,63.3,52.5,66.0,58.2,51.0,94,84,63,30.04,29.82,4,1,7,0.44
2015-5-30,52.3,44.2,39.1,51.0,38.4,29.0,95,81,60,30.36,29.96,8,1,18,0.05
2015-5-31,45.7,40.4,34.1,38.0,34.0,29.0,94,78,60,30.47,30.37,5,0,10,0.01
2015-6-1,53.1,43.4,30.6,39.0,34.5,28.0,94,73,51,30.42,30.25,3,0,4,0.00
2015-6-2,73.8,60.4,42.1,46.0,36.4,27.0,86,44,18,30.25,30.02,4,1,8,0.00
2015-6-3,77.8,63.6,48.9,54.0,45.5,36.0,67,53,40,30.03,29.91,5,1,11,0.00
2015-6-4,61.3,54.9,48.3,56.0,49.4,43.0,95,83,51,30.11,29.93,1,0,4,0.23
2015-6-5,51.7,48.3,40.1,51.0,45.5,38.0,96,90,77,30.32,30.10,7,1,9,0.01
2015-6-6,70.5,52.8,35.9,51.0,42.3,34.0,96,71,41,30.32,29.93,4,0,10,0.00
2015-6-7,69.3,57.6,49.3,63.0,53.3,41.0,95,86,62,29.93,29.53,5,1,7,0.44
2015-6-8,62.5,55.4,49.5,56.0,51.8,48.0,96,88,75,29.72,29.60,3,0,5,0.00
2015-6-9,71.0,61.7,49.8,61.0,55.9,48.0,95,82,66,29.74,29.55,3,0,7,0.00
2015-6-10,67.6,62.8,53.8,61.0,56.0,51.0,94,79,66,29.84,29.46,4,1,7,0.05
2015-6-11,61.0,55.1,50.0,55.0,50.7,48.0,93,85,76,29.99,29.84,3,0,4,0.00
2015-6-12,64.7,55.5,48.7,54.0,50.4,47.0,94,83,67,30.02,29.94,2,0,5,0.00
2015-6-13,66.9,55.9,48.9,57.0,51.6,47.0,95,86,66,30.06,29.94,0,0,1,0.07
2015-6-14,64.1,58.9,50.8,61.0,56.5,49.0,96,91,86,29.94,29.89,3,0,4,0.00
2015-6-15,66.8,59.9,50.9,64.0,57.4,49.0,96,91,76,30.00,29.88,1,0,4,0.07
2015-6-16,61.7,55.8,49.4,53.0,45.7,39.0,86,70,47,30.22,30.01,6,0,11,0.01
2015-6-17,65.0,56.4,50.5,55.0,48.9,43.0,93,77,57,30.18,29.92,2,0,5,0.01
2015-6-18,67.8,54.5,45.5,60.0,49.0,41.0,95,82,56,30.15,29.85,9,1,15,0.01
2015-6-19,67.3,54.4,40.5,49.0,42.9,38.0,92,67,49,30.22,29.98,2,0,6,0.00
2015-6-20,67.5,59.3,54.3,59.0,51.9,42.0,95,77,56,29.97,29.72,5,1,9,0.08
2015-6-21,60.0,55.1,49.0,56.0,52.7,48.0,96,91,83,29.94,29.75,4,0,6,0.01
2015-6-22,69.7,63.5,51.1,66.0,59.5,50.0,96,87,73,29.93,29.53,4,0,9,0.26
2015-6-23,69.4,61.8,56.5,58.0,52.7,46.0,91,74,44,30.06,29.61,5,1,11,0.00
2015-6-24,65.3,59.9,54.7,61.0,55.3,51.0,94,85,68,30.13,30.00,3,0,5,0.08
2015-6-25,60.7,56.2,50.1,57.0,53.7,48.0,95,91,82,30.09,30.01,3,0,4,0.06
2015-6-26,65.1,56.0,47.2,57.0,50.1,46.0,96,81,58,30.18,30.09,3,0,5,0.00
2015-6-27,75.5,61.6,47.7,61.0,51.2,46.0,96,72,47,30.12,29.92,2,0,5,0.00
2015-6-28,78.5,65.7,54.9,62.0,57.6,50.0,95,76,55,29.91,29.79,4,0,6,0.17
2015-6-29,78.3,64.1,55.2,64.0,59.7,54.0,96,87,56,29.80,29.71,3,0,5,0.61
2015-6-30,57.0,48.7,45.8,56.0,46.8,44.0,96,93,87,30.00,29.77,3,1,9,0.07
2015-7-1,60.9,52.1,45.7,48.0,45.0,42.0,92,78,51,30.06,29.98,5,1,10,0.00
2015-7-2,73.8,61.8,46.9,58.0,50.9,45.0,93,69,45,30.08,29.94,3,0,5,0.00
2015-7-3,74.5,65.9,57.2,62.0,57.0,51.0,94,74,63,29.94,29.81,2,0,7,0.28
2015-7-4,64.6,58.7,54.0,59.0,55.4,52.0,97,89,76,30.01,29.88,3,0,6,0.00
2015-7-5,83.0,71.9,54.2,68.0,62.5,52.0,93,74,55,30.01,29.83,5,1,9,0.01
2015-7-6,72.8,65.8,54.3,68.0,62.2,53.0,96,88,79,29.90,29.74,6,1,8,1.07
2015-7-7,63.6,55.5,48.6,53.0,48.4,44.0,95,79,50,30.11,29.89,8,1,16,0.00
2015-7-8,73.8,60.5,46.9,54.0,49.5,44.0,91,69,46,30.15,29.97,3,0,9,0.00
2015-7-9,70.7,63.3,56.7,59.0,54.4,52.0,89,73,56,29.99,29.94,3,0,4,0.00
2015-7-10,82.9,69.7,56.8,66.0,60.5,53.0,89,74,48,30.03,29.98,2,0,5,0.00
2015-7-11,85.9,76.1,64.2,69.0,62.9,59.0,87,66,40,30.05,29.97,2,0,5,0.00
2015-7-12,85.2,75.3,67.0,68.0,64.1,58.0,86,70,41,29.98,29.79,2,0,5,0.00
2015-7-13,70.1,67.0,63.1,68.0,64.3,62.0,96,91,84,29.79,29.53,6,0,6,0.29
2015-7-14,64.3,57.5,50.8,63.0,52.9,46.0,96,85,61,29.98,29.51,6,1,11,0.04
2015-7-15,66.3,55.7,45.7,56.0,49.4,44.0,95,80,60,30.11,29.98,2,0,5,0.00
2015-7-16,78.7,67.4,58.4,60.0,54.7,37.0,91,65,44,30.03,29.78,3,1,9,0.02
2015-7-17,72.1,65.8,61.0,66.0,62.5,59.0,95,89,79,29.78,29.64,2,0,5,0.12
2015-7-18,85.8,73.7,64.1,72.0,66.3,62.0,95,79,57,29.77,29.64,4,0,6,0.00
2015-7-19,80.9,73.2,64.8,67.0,58.7,54.0,81,62,41,29.74,29.66,4,0,8,0.00
2015-7-20,79.4,71.5,64.1,64.0,58.2,50.0,77,64,46,29.72,29.57,3,1,8,0.00
2015-7-21,70.7,63.7,57.7,58.0,53.4,49.0,82,69,53,29.90,29.72,5,0,11,0.00
2015-7-22,72.7,63.7,53.0,58.0,50.9,48.0,84,65,45,29.96,29.90,4,0,6,0.00
2015-7-23,80.7,67.5,52.4,66.0,58.4,48.0,88,74,54,29.98,29.90,3,0,5,0.00
2015-7-24,81.4,73.8,63.5,68.0,65.0,61.0,92,75,58,29.93,29.77,4,0,6,0.00
2015-7-25,80.9,73.2,65.5,68.0,63.8,61.0,88,73,52,29.90,29.75,5,0,10,0.00
2015-7-26,85.7,74.6,64.8,69.0,64.4,58.0,91,71,54,29.95,29.88,2,0,8,0.00
2015-7-27,86.1,74.6,64.9,72.0,66.4,62.0,93,77,57,30.00,29.94,2,0,5,0.00
2015-7-28,84.1,76.0,66.2,67.0,63.9,61.0,88,67,48,29.98,29.82,4,1,11,0.00
2015-7-29,81.1,72.6,69.7,67.0,58.3,54.0,87,61,41,29.82,29.69,3,1,12,0.00
2015-7-30,79.5,72.7,66.6,58.0,55.5,52.0,67,56,39,29.86,29.72,3,1,10,0.00
2015-7-31,76.2,68.2,60.6,61.0,56.1,52.0,90,67,46,29.85,29.78,6,0,9,0.03
2015-8-1,77.9,68.0,60.7,60.0,54.8,51.0,81,64,41,29.84,29.73,3,0,6,0.00
2015-8-2,68.2,65.2,58.1,65.0,60.1,52.0,94,84,60,29.72,29.54,3,0,6,0.19
2015-8-3,69.9,62.1,56.5,57.0,54.5,52.0,89,77,59,29.81,29.63,4,0,6,0.00
2015-8-4,62.9,58.6,51.7,56.0,53.7,49.0,92,84,66,30.03,29.81,3,0,9,0.06
2015-8-5,69.5,59.9,51.7,58.0,53.1,49.0,90,79,62,30.10,30.05,3,0,5,0.00
2015-8-6,72.5,61.3,51.6,61.0,54.8,49.0,92,80,61,30.08,29.95,3,0,6,0.00
2015-8-7,67.2,63.2,60.3,62.0,58.9,53.0,94,86,71,29.95,29.91,0,0,2,0.15
2015-8-8,73.4,66.1,60.1,65.0,61.9,59.0,96,86,72,30.02,29.93,4,0,5,0.01
2015-8-9,80.3,68.5,62.4,69.0,63.8,59.0,95,86,65,29.97,29.87,3,0,6,1.21
2015-8-10,70.4,65.8,59.7,66.0,62.6,58.0,96,90,75,29.94,29.85,7,0,10,0.02
2015-8-11,65.0,61.3,56.6,60.0,56.9,54.0,93,85,75,30.13,29.94,4,1,17,0.00
2015-8-12,81.1,66.9,54.3,67.0,59.2,52.0,92,78,57,30.16,29.93,2,0,7,0.00
2015-8-13,81.1,72.2,63.7,70.0,65.6,61.0,95,80,60,29.92,29.81,2,0,5,0.08
2015-8-14,82.0,71.3,63.2,72.0,66.5,61.0,96,85,65,30.07,29.87,4,0,6,0.00
2015-8-15,84.5,71.1,58.5,71.0,63.2,57.0,96,78,51,30.11,29.98,2,0,4,0.00
2015-8-16,90.2,77.8,70.4,72.0,69.5,66.0,88,77,55,29.98,29.82,3,0,8,0.00
2015-8-17,75.7,65.1,59.6,70.0,61.7,57.0,95,89,66,30.01,29.88,4,0,6,0.07
2015-8-18,65.8,61.7,58.2,60.0,58.8,56.0,94,90,81,30.00,29.75,4,0,10,0.00
2015-8-19,75.4,65.6,60.1,68.0,61.6,56.0,97,87,59,29.74,29.42,3,0,9,0.26
2015-8-20,61.4,59.0,54.9,58.0,55.4,51.0,95,88,76,29.86,29.51,2,0,5,0.16
2015-8-21,76.0,63.8,52.4,60.0,54.4,50.0,93,74,50,30.01,29.86,4,0,9,0.00
2015-8-22,80.0,70.5,62.7,64.0,59.4,55.0,88,70,44,29.99,29.83,9,1,12,0.00
2015-8-23,69.7,65.3,58.9,63.0,57.7,53.0,94,77,62,29.85,29.61,6,1,16,0.36
2015-8-24,58.8,53.8,49.5,54.0,48.9,46.0,94,83,73,29.83,29.62,5,0,8,0.08
2015-8-25,54.8,52.4,49.2,51.0,49.3,47.0,93,89,85,30.05,29.82,2,0,5,0.00
2015-8-26,60.2,54.0,47.6,54.0,51.4,45.0,95,91,80,30.18,30.05,5,0,9,0.04
2015-8-27,68.1,55.9,43.1,60.0,51.8,42.0,96,86,66,30.21,30.05,3,0,5,0.00
2015-8-28,75.7,67.7,60.5,66.0,61.4,57.0,90,80,64,30.05,29.95,4,0,7,0.00
2015-8-29,75.2,66.9,58.8,63.0,59.3,55.0,91,77,61,30.03,29.95,4,0,7,0.00
2015-8-30,80.3,70.3,58.6,67.0,62.5,56.0,94,78,56,30.00,29.86,4,0,8,0.00
2015-8-31,85.5,74.5,64.2,69.0,65.3,61.0,89,74,49,29.94,29.86,2,0,7,0.00
2015-9-1,85.7,75.3,67.5,73.0,68.5,65.0,91,80,57,29.93,29.85,2,0,6,0.00
2015-9-2,69.3,66.6,63.8,68.0,65.1,63.0,96,95,92,30.04,29.91,3,0,3,0.35
2015-9-3,72.5,64.7,58.7,66.0,61.5,57.0,97,89,73,30.02,29.94,5,0,7,0.01
2015-9-4,73.9,64.3,56.4,66.0,60.0,55.0,97,87,66,30.08,30.02,2,0,5,0.00
2015-9-5,84.5,72.5,62.6,73.0,67.2,61.0,96,84,63,30.07,29.94,3,0,5,0.00
2015-9-6,84.2,75.6,68.8,76.0,71.1,66.0,93,86,73,29.96,29.77,3,1,7,0.04
2015-9-7,76.4,70.6,65.7,71.0,67.4,64.0,95,89,80,29.98,29.76,4,0,8,0.10
2015-9-8,66.4,64.7,60.1,65.0,62.9,58.0,95,93,90,29.99,29.76,2,0,4,0.34
2015-9-9,73.7,62.6,51.4,57.0,50.7,47.0,92,68,40,29.93,29.82,3,0,8,0.00
2015-9-10,63.9,59.6,51.0,56.0,52.2,46.0,89,77,65,29.99,29.86,7,1,16,0.00
2015-9-11,54.2,50.0,45.3,50.0,46.7,43.0,95,88,70,30.12,29.98,7,0,10,0.46
2015-9-12,57.6,48.4,41.5,49.0,42.7,39.0,95,80,59,30.14,30.03,6,0,13,0.00
2015-9-13,70.1,57.7,41.5,52.0,46.6,39.0,93,69,47,30.02,29.81,3,0,6,0.00
2015-9-14,78.3,65.4,52.6,63.0,55.3,48.0,85,70,56,29.94,29.82,5,1,11,0.00
2015-9-15,83.5,71.0,61.8,68.0,63.0,59.0,89,77,54,30.03,29.94,5,1,10,0.00
2015-9-16,81.6,71.8,64.8,65.0,60.3,55.0,78,68,53,30.03,29.87,6,2,15,0.00
2015-9-17,80.4,71.5,65.2,70.0,65.4,60.0,90,81,69,29.90,29.66,4,1,9,0.00
2015-9-18,69.2,63.6,55.8,66.0,57.9,53.0,92,82,67,29.91,29.67,5,0,11,0.01
2015-9-19,61.3,55.5,47.5,55.0,50.5,44.0,96,84,57,30.03,29.82,7,0,14,0.23
2015-9-20,72.9,61.7,52.2,53.0,48.4,43.0,78,64,38,30.12,30.03,3,0,5,0.00
2015-9-21,72.5,61.8,51.7,55.0,50.1,48.0,87,67,43,30.09,29.98,6,1,11,0.00
2015-9-22,66.8,59.6,49.1,61.0,52.9,47.0,92,78,69,30.26,29.97,5,1,12,0.00
2015-9-23,64.0,54.3,45.5,55.0,49.6,44.0,96,85,68,30.38,30.26,3,0,6,0.00
2015-9-24,65.5,58.1,49.6,61.0,54.7,47.0,93,88,84,30.38,30.31,1,0,3,0.00
2015-9-25,67.1,60.9,57.4,62.0,57.9,56.0,95,90,81,30.38,30.32,2,0,9,0.00
2015-9-26,74.5,64.6,55.7,63.0,58.5,54.0,95,82,61,30.37,30.15,4,0,6,0.00
2015-9-27,75.6,65.9,58.2,62.0,58.4,55.0,91,78,55,30.14,29.87,5,1,10,0.00
2015-9-28,70.2,61.9,51.3,64.0,58.9,50.0,95,90,78,29.96,29.83,3,0,6,0.10
2015-9-29,53.2,42.4,44.4,50.0,34.7,35.0,94,60,52,30.29,29.96,4,0,11,0.00
2015-9-30,56.7,5.9,54.3,42.0,4.3,40.0,64,6,55,30.44,30.29,3,0,6,0.00
2015-10-1,53.7,30.0,44.5,41.0,24.2,36.0,79,44,62,30.61,30.44,5,0,12,0.00
2015-10-2,52.9,46.8,34.7,42.0,37.7,32.0,91,72,56,30.68,30.57,3,0,6,0.00
2015-10-3,48.7,44.8,37.9,39.0,36.1,34.0,87,72,60,30.57,30.44,3,0,6,0.00
2015-10-4,52.7,45.4,38.6,46.0,40.5,34.0,92,83,64,30.43,30.31,2,0,4,0.00
2015-10-5,56.6,49.6,40.5,51.0,45.9,39.0,94,87,73,30.31,30.15,2,0,3,0.00
2015-10-6,61.2,54.6,48.5,55.0,50.1,46.0,93,85,75,30.14,30.02,1,0,3,0.00
2015-10-7,52.2,47.4,38.1,48.0,41.7,36.0,92,81,67,30.25,30.07,5,0,12,0.00
2015-10-8,51.2,46.5,39.1,50.0,44.5,37.0,95,93,86,30.21,29.85,2,0,6,0.21
2015-10-9,55.7,49.2,43.0,50.0,44.7,39.0,96,85,56,30.22,29.95,4,0,10,0.02
2015-10-10,63.2,52.9,42.8,47.0,43.4,41.0,93,73,46,30.21,29.63,7,1,13,0.00
2015-10-11,82.5,67.0,55.2,59.0,53.6,47.0,79,64,39,29.63,29.38,6,1,7,0.00
2015-10-12,72.2,62.7,51.9,59.0,51.3,42.0,89,69,34,29.37,29.19,4,1,12,0.00
2015-10-13,54.4,47.6,43.3,51.0,44.4,40.0,94,89,82,29.82,29.32,3,0,6,0.04
2015-10-14,61.9,49.4,38.0,43.0,39.3,35.0,91,70,46,29.88,29.79,4,0,6,0.00
2015-10-15,56.7,48.1,42.0,43.0,38.9,36.0,93,71,49,30.05,29.76,7,0,9,0.03
2015-10-16,42.2,36.5,32.8,40.0,30.5,24.0,93,79,63,30.33,30.05,2,0,5,0.05
2015-10-17,36.6,33.0,28.8,30.0,27.0,23.0,93,79,65,30.43,30.31,2,0,5,0.13
2015-10-18,47.8,39.2,30.7,37.0,29.1,25.0,84,68,48,30.49,30.13,6,0,10,0.01
2015-10-19,59.8,48.3,42.0,45.0,37.2,32.0,90,66,53,30.13,29.76,7,1,9,0.00
2015-10-20,50.1,45.4,41.5,46.0,39.5,34.0,90,80,69,30.21,29.88,6,0,10,0.00
2015-10-21,60.4,49.5,39.5,55.0,45.3,36.0,95,85,73,30.20,29.81,6,0,10,0.18
2015-10-22,48.2,43.3,32.9,42.0,37.8,30.0,91,81,72,30.43,30.05,2,0,10,0.00
2015-10-23,49.1,39.8,29.9,43.0,36.3,28.0,94,87,67,30.43,29.92,4,0,8,0.07
2015-10-24,51.8,46.8,39.6,51.0,45.1,38.0,95,93,91,30.04,29.62,4,1,9,0.83
2015-10-25,45.6,39.2,29.8,40.0,35.3,28.0,95,86,65,30.44,30.05,6,0,12,0.01
2015-10-26,47.9,39.0,29.9,42.0,35.9,28.0,94,89,76,30.47,30.42,2,0,4,0.00
2015-10-27,54.8,45.6,36.6,47.0,41.4,35.0,96,86,64,30.45,30.10,2,0,8,0.00
2015-10-28,51.1,46.6,42.5,50.0,43.9,40.0,95,90,78,30.08,29.11,2,0,9,0.50
2015-10-29,42.9,41.5,38.2,41.0,39.6,37.0,95,93,87,29.91,29.14,3,0,9,0.06
2015-10-30,44.5,39.0,31.0,40.0,36.3,30.0,96,90,81,30.09,29.91,3,0,5,0.03
2015-10-31,47.0,44.0,41.0,45.0,41.6,38.0,98,91,79,29.92,29.46,4,0,9,0.33
2015-11-1,51.0,45.8,42.6,46.0,42.9,40.0,95,88,78,29.91,29.42,4,0,5,0.01
2015-11-2,53.8,48.4,44.4,50.0,45.5,42.0,94,89,82,29.95,29.81,3,0,6,0.01
2015-11-3,65.1,50.0,40.6,54.0,46.1,39.0,96,87,65,30.10,29.95,4,0,5,0.00
2015-11-4,55.5,52.4,48.1,53.0,49.8,46.0,96,91,87,30.02,29.91,5,1,11,0.00
2015-11-5,64.9,60.8,55.4,58.0,55.9,53.0,92,84,74,29.92,29.48,10,2,15,0.00
2015-11-6,60.3,45.2,40.1,58.0,38.5,33.0,95,78,64,30.02,29.43,4,0,10,0.04
2015-11-7,42.4,36.7,28.1,35.0,30.9,26.0,90,80,63,30.31,30.02,6,0,10,0.00
2015-11-8,58.1,45.0,28.0,34.0,30.8,26.0,90,60,39,30.30,30.10,8,1,10,0.00
2015-11-9,60.6,47.8,37.5,39.0,34.2,31.0,76,61,44,30.16,30.08,5,1,8,0.00
2015-11-10,57.0,46.6,35.0,41.0,35.3,31.0,86,66,48,30.10,29.91,3,0,7,0.00
2015-11-11,56.1,46.0,37.2,43.0,36.0,31.0,92,69,46,29.92,29.48,4,0,7,0.10
2015-11-12,47.3,43.1,37.1,46.0,41.4,35.0,96,94,91,29.54,29.19,4,0,5,0.84
2015-11-13,37.0,33.6,32.4,35.0,31.8,30.0,95,93,90,30.12,29.54,3,0,6,0.18
2015-11-14,45.0,37.0,28.4,34.0,29.5,26.0,92,75,59,30.18,29.95,9,1,15,0.07
2015-11-15,50.2,38.6,31.3,43.0,35.3,30.0,96,88,65,30.15,30.04,2,0,4,0.00
2015-11-16,56.3,44.2,32.5,44.0,38.9,31.0,96,83,59,30.15,30.07,5,0,14,0.01
2015-11-17,53.8,50.0,47.0,48.0,43.5,39.0,92,78,69,30.07,29.66,7,1,14,0.03
2015-11-18,57.5,52.4,47.9,53.0,48.2,40.0,93,85,71,29.65,29.21,10,2,20,0.07
2015-11-19,48.2,37.0,28.2,43.0,29.7,16.0,90,76,48,29.72,29.28,8,1,15,0.00
2015-11-20,31.1,29.3,27.4,22.0,19.1,17.0,78,66,61,30.25,29.72,3,0,8,0.00
2015-11-21,29.3,26.0,20.5,19.0,17.2,13.0,77,69,61,30.28,30.07,2,0,5,0.00
2015-11-22,29.5,22.8,18.1,17.0,13.2,8.0,89,68,42,30.09,29.97,3,0,7,0.00
2015-11-23,33.7,27.8,21.5,30.0,22.8,17.0,87,81,72,30.14,29.92,2,0,3,0.00
2015-11-24,36.0,32.6,27.6,29.0,25.1,24.0,86,74,65,30.36,30.15,0,0,5,0.00
2015-11-25,45.8,39.4,27.3,38.0,34.6,24.0,91,83,70,30.32,29.98,6,1,12,0.00
2015-11-26,42.2,36.5,29.5,38.0,34.1,28.0,94,91,82,30.37,30.09,3,0,10,0.09
2015-11-27,29.4,23.6,13.9,27.0,20.7,11.0,92,88,84,30.59,30.36,0,0,0,0.00
2015-11-28,33.3,21.1,11.8,29.0,18.0,9.0,91,87,72,30.57,30.34,0,0,0,0.01
2015-11-29,33.9,28.9,24.7,31.0,26.4,20.0,93,90,82,30.48,30.38,1,0,1,0.00
2015-11-30,36.6,30.9,23.1,33.0,28.6,21.0,95,91,85,30.40,30.10,0,0,2,0.01
2015-12-1,34.9,33.5,31.5,34.0,32.3,30.0,96,95,94,30.09,29.72,1,0,2,0.16
2015-12-2,37.8,33.6,30.0,34.0,31.5,29.0,96,92,75,29.99,29.75,1,0,7,0.19
2015-12-3,39.1,34.9,31.6,33.0,30.9,29.0,95,86,74,30.17,30.00,3,0,8,0.14
2015-12-4,49.7,38.9,30.1,32.0,29.3,26.0,87,70,44,30.41,30.14,4,1,7,0.09
2015-12-5,44.7,38.9,33.3,35.0,31.5,29.0,86,75,66,30.42,30.31,7,2,13,0.00
2015-12-6,43.4,35.8,27.6,37.0,31.3,26.0,93,84,75,30.34,30.21,2,0,7,0.00
2015-12-7,36.9,31.5,26.5,35.0,29.7,25.0,94,93,91,30.26,29.93,5,1,12,0.00
2015-12-8,38.2,37.2,36.2,36.0,34.5,34.0,92,90,87,29.94,29.71,5,1,9,0.00
2015-12-9,44.8,38.7,35.0,42.0,36.4,33.0,96,91,84,29.71,29.57,2,0,5,0.11
2015-12-10,45.8,41.0,37.0,42.0,38.2,34.0,92,89,80,29.60,29.14,6,1,10,0.01
2015-12-11,42.9,36.4,32.2,41.0,33.9,31.0,94,90,84,30.01,29.16,4,0,7,0.01
2015-12-12,36.2,34.1,30.8,35.0,32.7,29.0,96,94,91,30.19,30.01,1,0,2,0.04
2015-12-13,40.4,38.5,36.0,39.0,37.3,35.0,96,96,95,30.16,29.64,2,0,5,0.44
2015-12-14,39.6,36.0,30.8,39.0,35.0,30.0,96,96,95,29.65,29.26,13,3,22,1.50
2015-12-15,32.3,30.9,29.8,30.0,28.6,27.0,95,91,87,30.06,29.60,12,2,19,0.00
2015-12-16,41.6,35.0,29.7,40.0,33.4,28.0,95,93,90,30.01,29.34,7,1,15,0.22
2015-12-17,35.9,29.7,24.9,33.0,24.3,18.0,92,80,71,29.74,29.38,4,1,10,0.01
2015-12-18,24.9,20.8,16.4,20.0,11.6,7.0,82,68,54,29.96,29.71,2,0,7,0.00
2015-12-19,20.7,17.0,12.7,15.0,11.1,9.0,89,77,72,30.31,29.97,3,0,6,0.00
2015-12-20,35.3,28.9,19.6,29.0,22.2,13.0,85,76,67,30.28,29.79,4,0,9,0.00
2015-12-21,32.8,30.4,28.0,31.0,28.1,26.0,93,90,84,29.93,29.80,3,0,7,0.00
2015-12-22,35.4,31.4,28.3,34.0,29.1,26.0,94,91,84,29.90,29.75,2,0,8,0.05
2015-12-23,48.8,40.9,35.6,48.0,39.3,34.0,96,94,90,29.75,28.89,4,1,12,0.21
2015-12-24,48.0,32.5,27.3,47.0,28.2,23.0,96,84,77,30.09,28.82,7,1,19,0.16
2015-12-25,29.2,27.5,26.5,24.0,22.6,21.0,84,82,76,30.51,30.09,2,0,5,0.00
2015-12-26,33.7,30.8,27.2,31.0,27.7,23.0,94,88,82,30.55,30.30,3,0,4,0.00
2015-12-27,32.1,24.3,18.7,31.0,21.7,15.0,100,89,81,30.59,30.31,3,0,5,0.00
2015-12-28,23.7,20.9,17.9,19.0,15.6,9.0,86,80,64,30.62,30.09,3,0,10,0.00
2015-12-29,25.7,24.7,22.7,23.0,22.0,19.0,92,89,82,30.19,29.95,4,1,13,0.00
2015-12-30,27.6,25.5,24.4,25.0,22.9,21.0,92,89,85,30.20,30.11,2,0,3,0.00
2015-12-31,27.1,24.0,19.5,22.0,19.5,13.0,90,83,74,30.15,30.00,2,0,6,0.00
2016-1-1,26.2,21.7,17.0,19.0,15.8,13.0,87,79,66,30.01,29.93,3,0,8,0.00
2016-1-2,38.8,28.9,23.6,25.0,22.3,19.0,88,77,49,29.97,29.66,5,0,9,0.02